Seattle, WA

10:10 AM PDT on July 28, 2017 (GMT -0700)
Seattle-Tacoma International

Weather History for KSEA - October, 2014

Change the Weather History Date:

Thursday, October 9, 2014

  Actual Average Record
Temperature  
Mean Temperature 58 °F 55 °F  
Max Temperature 63 °F 62 °F 79 °F (1996)
Min Temperature 52 °F 47 °F 35 °F (1960)
Degree Days  
Heating Degree Days 7 10  
Month to date heating degree days 33 82  
Since 1 July heating degree days 98 299  
Cooling Degree Days 0 0  
Month to date cooling degree days 2 0  
Year to date cooling degree days 369 189  
Growing Degree Days 9 (Base 50)    
Moisture  
Dew Point 55 °F    
Average Humidity 89    
Maximum Humidity 100    
Minimum Humidity 78    
Precipitation  
Precipitation T in 0.09 in 1.27 in (1953)
Month to date precipitation T 0.70  
Year to date precipitation 32.12 22.79  
Snow  
Snow 0.00 in - - ()
Month to date snowfall 0.0  
Since 1 July snowfall 0.0  
Snow Depth 0.00 in    
Sea Level Pressure  
Sea Level Pressure 30.06 in    
Wind  
Wind Speed 2 mph (NNW)    
Max Wind Speed 9 mph    
Max Gust Speed 10 mph    
Visibility 4 miles    
Events Fog    
T = Trace of Precipitation, MM = Missing Value Source: NWS Daily Summary

Daily Weather History Graph

Daily Weather History Graph

Search for Another Location

Airport or City:

Trip Planner

Search our weather history database for the weather conditions in past years. The results will help you decide how hot, cold, wet, or windy it might be!

Date:

Astronomy

Oct. 09, 2014 Rise Set
Actual Time 7:19 AM PDT 6:32 PM PDT
Civil Twilight 6:48 AM PDT 7:03 PM PDT
Nautical Twilight 6:13 AM PDT 7:38 PM PDT
Astronomical Twilight 5:37 AM PDT 8:14 PM PDT
Moon 7:25 PM PDT (10/9) 8:46 AM PDT (10/9)
Length of Visible Light 12h 14m
Length of Day
11h 13m
Full, 98% of the Moon is Illuminated
Oct 9
Full
Oct 15
Last Quarter
Oct 23
New
Oct 30
First Quarter
Nov 6
Full

Hourly Weather History & Observations

Time (PDT) Temp. Dew Point Humidity Pressure Visibility Wind Dir Wind Speed Gust Speed Precip Events Conditions
12:00 AM 55.4 °F 53.6 °F 94% 30.04 in 1.0 mi NNW 3.5 mph - N/A   Mist
12:04 AM 55.4 °F 53.6 °F 94% 30.04 in 0.5 mi Calm Calm - N/A Fog Fog
12:15 AM 55.4 °F 55.4 °F 100% 30.04 in 0.5 mi Calm Calm - N/A Fog Fog
12:53 AM 57.0 °F 55.0 °F 93% 30.06 in 0.2 mi North 3.5 mph - N/A Fog Fog
1:53 AM 57.0 °F 55.9 °F 96% 30.06 in 0.2 mi Calm Calm - N/A Fog Fog
2:53 AM 57.0 °F 55.9 °F 96% 30.06 in 0.2 mi NE 4.6 mph - N/A Fog Fog
3:53 AM 57.0 °F 55.9 °F 96% 30.06 in 0.2 mi Calm Calm - N/A Fog Fog
4:22 AM 57.2 °F 55.4 °F 94% 30.04 in 0.2 mi NNE 3.5 mph - N/A Fog Fog
4:45 AM 57.2 °F 55.4 °F 94% 30.04 in 0.2 mi Calm Calm - N/A Fog Fog
4:53 AM 57.0 °F 55.9 °F 96% 30.06 in 0.2 mi NNE 4.6 mph - N/A Fog Fog
5:53 AM 55.9 °F 55.0 °F 97% 30.06 in 0.2 mi North 4.6 mph - N/A Fog Fog
6:10 AM 55.4 °F 55.4 °F 100% 30.04 in 0.2 mi Calm Calm - N/A Fog Fog
6:28 AM 55.4 °F 55.4 °F 100% 30.04 in 0.2 mi NNW 4.6 mph - N/A Fog Fog
6:53 AM 55.9 °F 55.0 °F 97% 30.06 in 0.2 mi NW 3.5 mph - N/A Fog Fog
7:28 AM 55.4 °F 55.4 °F 100% 30.04 in 0.2 mi Calm Calm - N/A Fog Fog
7:53 AM 55.9 °F 55.0 °F 97% 30.06 in 0.2 mi Calm Calm - N/A Fog Fog
8:08 AM 55.4 °F 55.4 °F 100% 30.05 in 0.2 mi Calm Calm - N/A Fog Fog
8:53 AM 55.9 °F 55.0 °F 97% 30.08 in 0.2 mi Calm Calm - 0.00 in Fog Light Drizzle
9:01 AM 55.4 °F 55.4 °F 100% 30.06 in 0.2 mi NNE 4.6 mph - 0.00 in Fog Light Drizzle
9:53 AM 55.9 °F 55.0 °F 97% 30.09 in 0.2 mi NNW 3.5 mph - 0.00 in Fog Fog
10:50 AM 57.2 °F 55.4 °F 94% 30.08 in 1.0 mi NNW 3.5 mph - N/A   Overcast
10:53 AM 57.0 °F 55.0 °F 93% 30.09 in 1.0 mi NE 3.5 mph - N/A   Overcast
11:01 AM 57.2 °F 55.4 °F 94% 30.07 in 1.5 mi Calm Calm - N/A   Overcast
11:46 AM 59.0 °F 55.4 °F 88% 30.07 in 4.0 mi Calm Calm - N/A   Overcast
11:53 AM 59.0 °F 55.0 °F 87% 30.09 in 4.0 mi Calm Calm - N/A   Overcast
12:46 PM 60.8 °F 55.4 °F 82% 30.06 in 6.0 mi WNW 4.6 mph - N/A   Mostly Cloudy
12:53 PM 61.0 °F 55.9 °F 83% 30.08 in 6.0 mi West 4.6 mph - N/A   Haze
1:53 PM 62.1 °F 55.0 °F 78% 30.07 in 6.0 mi NW 6.9 mph - N/A   Haze
2:53 PM 61.0 °F 55.0 °F 81% 30.05 in 6.0 mi West 6.9 mph - N/A   Haze
3:41 PM 59.0 °F 55.4 °F 88% 30.04 in 4.0 mi NW 5.8 mph - N/A   Mostly Cloudy
3:53 PM 57.9 °F 54.0 °F 87% 30.05 in 5.0 mi West 5.8 mph - N/A   Mostly Cloudy
4:00 PM 57.2 °F 55.4 °F 94% 30.03 in 5.0 mi West 4.6 mph - N/A   Mostly Cloudy
4:53 PM 60.8 °F 55.4 °F 82% 30.03 in 7.0 mi WNW 3.5 mph - N/A   Scattered Clouds
5:53 PM 60.1 °F 55.0 °F 83% 30.04 in 10.0 mi Calm Calm - N/A   Scattered Clouds
6:53 PM 55.9 °F 54.0 °F 93% 30.04 in 10.0 mi Calm Calm - N/A   Scattered Clouds
7:53 PM 55.9 °F 53.1 °F 90% 30.04 in 10.0 mi Calm Calm - N/A   Clear
8:53 PM 57.0 °F 53.1 °F 87% 30.05 in 10.0 mi Calm Calm - N/A   Clear
9:53 PM 59.0 °F 53.1 °F 81% 30.04 in 10.0 mi NNE 4.6 mph - N/A   Clear
10:53 PM 55.9 °F 53.1 °F 90% 30.05 in 10.0 mi Calm Calm - N/A   Clear
11:53 PM 54.0 °F 52.0 °F 93% 30.05 in 10.0 mi Calm Calm - N/A   Clear